[[{"header":{"parameterUnit":"m.s-1","parameterCategory":1,"la1":30.2991,"la2":30.254,"lo1":-89.0895,"lo2":-89.0444,"dy":0.0017,"dx":0.0017,"nx":28,"ny":28,"refTime":"2023-11-16T09:00:00:Z","depth":0,"parameterNumber":2,"parameterNumberName":"U-component_of_WINDS"},"data":[0,0,0,0,0,0,0,0,0,0,0,0,0,0,0,0,0,0,0,0,0,0,0,0,0,0,0,0,0,0,0,0,0,0,0,0,0,0,0,0,0,0,0,0,0,0,0,0,0,0,0,0,0,0,0,0,0,0,-4.5704,-4.5704,0,-4.5765,-4.5766,-4.5766,-4.567,-4.5667,-4.5663,-4.566,-4.5724,-4.5729,-4.5734,0,0,0,0,0,0,0,0,0,0,0,0,0,-4.5505,-4.5509,-4.5704,-4.5704,-4.5705,-4.5765,-4.5766,-4.5766,-4.5671,-4.5667,-4.5663,-4.5659,-4.5723,-4.5728,-4.5734,0,0,0,0,0,0,0,0,0,0,0,0,0,-4.5581,-4.5511,-4.5704,-4.5665,-4.5662,-4.5765,-4.5766,-4.5767,-4.5671,-4.5666,-4.5661,-4.5657,-4.5721,-4.5728,-4.5735,-4.5879,0,0,-4.5757,-4.576,0,0,0,0,0,0,0,0,-4.5577,-4.5589,-4.567,-4.5667,-4.5664,-4.5705,-4.5719,-4.5804,-4.5673,-4.5668,-4.566,-4.5654,-4.5722,-4.5729,-4.5751,-4.5882,-4.5885,-4.5757,-4.5762,-4.5765,-4.5767,0,0,0,0,0,0,0,-4.5572,-4.5586,-4.5728,-4.5671,-4.5668,-4.5644,-4.565,-4.5735,-4.5722,-4.5668,-4.5661,-4.567,-4.5719,-4.5744,-4.5752,-4.5886,-4.5757,-4.5764,-4.5768,-4.5771,-4.614,-4.6145,0,0,0,0,0,0,-4.5571,-4.5582,-4.5726,-4.573,-4.5608,-4.5652,-4.5658,-4.5697,-4.5721,-4.572,-4.5674,-4.5665,-4.5734,-4.5744,-4.5754,-4.5926,-4.5765,-4.5772,-4.5776,-4.6134,-4.6141,-4.6147,0,0,0,0,0,0,-4.5567,-4.5585,-4.5723,-4.5654,-4.567,-4.5661,-4.5705,-4.5701,-4.5725,-4.5725,-4.5723,-4.5702,-4.5731,-4.5744,-4.5849,-4.5927,-4.5775,-4.5781,-4.6128,-4.6136,-4.6144,-4.627,0,0,0,0,0,0,-4.5562,-4.5584,-4.5639,-4.5656,-4.5674,-4.5818,-4.571,-4.5705,-4.5738,-4.5727,-4.5751,-4.575,-4.5728,-4.5839,-4.5856,-4.5934,-4.5787,-4.6121,-4.6132,-4.6141,-4.6259,-4.6282,-4.6301,0,0,0,0,0,-4.5555,-4.5672,-4.5642,-4.566,-4.5742,-4.5822,-4.5833,-4.5805,-4.5745,-4.58,-4.58,-4.5749,-4.5915,-4.585,-4.5869,-4.595,-4.6116,-4.6129,-4.6141,-4.625,-4.6278,-4.6301,0,0,0,0,0,0,-4.5664,-4.5673,-4.564,-4.5766,-4.5794,-4.5806,-4.5875,-4.5835,-4.5881,-4.5869,-4.5832,-4.5839,-4.5952,-4.5961,-4.5889,-4.6092,-4.6005,-4.6022,-4.6082,-4.6108,-4.6129,-4.6125,-4.5793,0,0,0,0,0,-4.5703,-4.5767,-4.5771,-4.5882,-4.5898,-4.5884,-4.5918,-4.5894,-4.5922,-4.5934,-4.5941,-4.5971,-4.6029,-4.6069,-4.6123,-4.6259,-4.6264,-4.6324,-4.6345,-4.6363,-4.6378,-4.6453,-4.648,-4.6187,-4.6187,-4.6187,0,0,-4.5783,-4.5796,-4.5839,-4.5904,-4.5923,-4.5991,-4.5895,-4.597,-4.6021,-4.5945,-4.6046,-4.6052,-4.6083,-4.6205,-4.6259,-4.6216,-4.646,-4.6378,-4.6392,-4.6398,-4.6468,-4.6496,-4.6521,-4.6196,-4.6194,-4.6193,0,0,-4.5965,-4.5981,-4.6075,-4.6096,-4.6126,-4.6116,-4.6139,-4.6157,-4.6159,-4.6259,-4.6204,-4.6263,-4.6365,-4.6389,-4.6415,-4.6607,-4.6563,-4.6625,-4.6736,-4.6809,-4.6833,-4.6853,-4.6923,-4.6949,-4.664,-4.6641,-4.6641,0,-4.6062,-4.6162,-4.6129,-4.6209,-4.624,-4.6174,-4.627,-4.6292,-4.6338,-4.6362,-4.6312,-4.6439,-4.6455,-4.6583,-4.663,-4.6652,-4.6678,-4.6624,-4.6832,-4.6852,-4.687,-4.6937,-4.6964,-4.6648,-4.6647,-4.6647,-4.6646,0,-4.628,-4.6351,-4.6423,-4.647,-4.6509,-4.6596,-4.6577,-4.662,-4.6593,-4.6589,-4.6692,-4.6708,-4.6765,-4.6793,-4.6767,-4.6918,-4.6891,-4.6837,-4.675,-4.6906,-4.6969,-4.6994,-4.6659,-4.6656,-4.6654,-4.6652,0,0,-4.6534,-4.6561,-4.6588,-4.661,-4.6638,-4.6692,-4.6777,-4.6832,-4.6871,-4.6905,-4.6977,-4.7064,-4.7015,-4.7044,-4.702,-4.7084,-4.7238,-4.7023,-4.7023,-4.7064,-4.7408,-4.745,-4.748,-4.7208,-4.7212,-4.7216,-4.7406,0,-4.6717,-4.6863,-4.6836,-4.698,-4.7045,-4.6983,-4.7057,-4.7083,-4.7082,-4.7137,-4.7135,-4.7199,-4.7128,-4.7145,-4.7206,-4.7207,-4.7307,-4.7192,-4.7276,-4.7279,-4.7273,-4.7512,-4.7556,-4.7734,-4.743,-4.7434,-4.7437,0,-4.695,-4.6993,-4.7144,-4.7163,-4.7189,-4.7256,-4.7306,-4.7359,-4.7387,-4.7382,-4.7415,-4.7379,-4.7465,-4.7375,-4.7493,-4.7416,-4.7448,-4.7454,-4.746,-4.7469,-4.7369,-4.7529,-4.779,-4.7818,-4.7474,-4.7471,-4.7469,0,-4.7123,-4.7218,-4.7321,-4.734,-4.7365,-4.7414,-4.7426,-4.7449,-4.7485,-4.7528,-4.7551,-4.7603,-4.7633,-4.7674,-4.7654,-4.759,-4.7777,-4.7685,-4.7776,-4.7777,-4.782,-4.7818,-4.8092,-4.7837,-4.7837,-4.7836,-4.7836,0,-4.7331,-4.7426,-4.7399,-4.7463,-4.7568,-4.7535,-4.764,-4.7645,-4.7666,-4.773,-4.7679,-4.774,-4.7708,-4.7767,-4.7752,-4.7853,-4.7866,-4.7865,-4.786,-4.7871,-4.7872,-4.7894,-4.7882,-4.7843,-4.7842,-4.784,-4.7839,0,-4.7543,-4.7528,-4.7637,-4.7651,-4.7656,-4.7733,-4.7746,-4.7805,-4.7799,-4.7881,-4.7898,-4.7889,-4.7956,-4.7939,-4.8012,-4.8002,-4.8131,-4.8109,-4.8121,-4.8117,-4.821,-4.8203,-4.851,-4.855,-4.8267,-4.8269,-4.8272,0,-4.7678,-4.775,-4.7772,-4.7811,-4.7828,-4.7891,-4.7927,-4.7897,-4.7937,-4.7975,-4.8031,-4.8093,-4.8142,-4.8252,-4.8252,-4.8308,-4.8289,-4.8393,-4.8297,-4.8307,-4.8294,-4.8291,-4.8299,-4.8413,-4.8416,-4.8419,-4.8421,0,-4.7921,-4.791,-4.7964,-4.8016,-4.806,-4.81,-4.8134,-4.8169,-4.8143,-4.819,-4.8258,-4.8296,-4.837,-4.8434,-4.8485,-4.8498,-4.8457,-4.8451,-4.8475,-4.8488,-4.8494,-4.8494,-4.8176,-4.8444,-4.8442,-4.844,-4.8439,-4.8438,-4.81,-4.8162,-4.8187,-4.8249,-4.8272,-4.8306,-4.8363,-4.8364,-4.842,-4.8479,-4.8457,-4.8536,-4.8563,-4.8628,-4.8647,-4.8709,-4.8669,-4.8704,-4.8714,-4.8723,-4.8736,-4.8482,-4.8717,-4.8717,-4.8716,-4.8716,-4.8715,0,-4.8342,-4.8355,-4.8412,-4.8463,-4.8512,-4.8467,-4.8503,-4.8547,-4.8617,-4.8645,-4.8694,-4.8773,-4.8834,-4.8839,-4.8897,-4.8945,-4.8928,-4.8962,-4.8959,-4.8964,-4.8767,-4.8741,-4.8975,-4.8975,-4.8975,-4.8975,-4.8975,-4.8975,-4.8474,-4.8576,-4.8569,-4.8682,-4.8694,-4.8771,-4.8795,-4.8827,-4.8849,-4.894,-4.899,-4.8993,-4.9013,-4.9072,-4.9126,-4.9126,-4.9151,-4.9193,-4.9186,-4.9003,-4.8977,-4.8952,-4.8928,-4.9198,-4.9198,-4.9378,-4.938,-4.9381]},{"header":{"parameterUnit":"m.s-1","parameterCategory":1,"la1":30.2991,"la2":30.254,"lo1":-89.0895,"lo2":-89.0444,"dy":0.0017,"dx":0.0017,"nx":28,"ny":28,"refTime":"2023-11-16T09:00:00:Z","depth":0,"parameterNumber":3,"parameterNumberName":"V-component_of_WINDS"},"data":[0,0,0,0,0,0,0,0,0,0,0,0,0,0,0,0,0,0,0,0,0,0,0,0,0,0,0,0,0,0,0,0,0,0,0,0,0,0,0,0,0,0,0,0,0,0,0,0,0,0,0,0,0,0,0,0,0,0,-4.3429,-4.3429,0,-4.3442,-4.3442,-4.3442,-4.3383,-4.3381,-4.3379,-4.3378,-4.339,-4.3392,-4.3394,0,0,0,0,0,0,0,0,0,0,0,0,0,-4.335,-4.3352,-4.3429,-4.3429,-4.3429,-4.3442,-4.3442,-4.3442,-4.3383,-4.3381,-4.3379,-4.3377,-4.3389,-4.3392,-4.3394,0,0,0,0,0,0,0,0,0,0,0,0,0,-4.3376,-4.3353,-4.3429,-4.3401,-4.3399,-4.3442,-4.3442,-4.3442,-4.3383,-4.3381,-4.3378,-4.3376,-4.3389,-4.3392,-4.3394,-4.3464,0,0,-4.3403,-4.3405,0,0,0,0,0,0,0,0,-4.3375,-4.3379,-4.3405,-4.3403,-4.34,-4.3408,-4.3419,-4.345,-4.3384,-4.3389,-4.3377,-4.3374,-4.3398,-4.34,-4.3408,-4.3465,-4.3466,-4.3404,-4.3405,-4.3407,-4.3407,0,0,0,0,0,0,0,-4.3373,-4.3378,-4.3434,-4.3405,-4.3403,-4.3387,-4.3388,-4.3424,-4.3408,-4.3389,-4.3384,-4.3387,-4.3396,-4.3406,-4.3408,-4.3466,-4.3404,-4.3406,-4.3408,-4.3409,-4.358,-4.3582,0,0,0,0,0,0,-4.3375,-4.3377,-4.3433,-4.3434,-4.3381,-4.3391,-4.3392,-4.3408,-4.3407,-4.3405,-4.3389,-4.3384,-4.3402,-4.3405,-4.3408,-4.349,-4.3407,-4.3409,-4.3411,-4.3577,-4.358,-4.3583,0,0,0,0,0,0,-4.3374,-4.3381,-4.3433,-4.3404,-4.341,-4.3395,-4.3414,-4.341,-4.3419,-4.3408,-4.3404,-4.3401,-4.34,-4.3404,-4.3451,-4.3489,-4.3411,-4.3413,-4.3574,-4.3578,-4.3582,-4.3654,0,0,0,0,0,0,-4.3372,-4.3381,-4.3408,-4.3406,-4.3412,-4.3476,-4.3416,-4.3412,-4.3424,-4.3418,-4.3419,-4.3416,-4.3398,-4.3447,-4.3454,-4.3492,-4.3416,-4.357,-4.3575,-4.358,-4.3648,-4.366,-4.367,0,0,0,0,0,-4.3369,-4.3427,-4.3409,-4.3416,-4.3445,-4.3478,-4.3482,-4.346,-4.3428,-4.3454,-4.3447,-4.3416,-4.3484,-4.3452,-4.3459,-4.3499,-4.3568,-4.3574,-4.358,-4.3643,-4.3658,-4.367,0,0,0,0,0,0,-4.3434,-4.3427,-4.3406,-4.3466,-4.3473,-4.3468,-4.3501,-4.3476,-4.3493,-4.3486,-4.3458,-4.3459,-4.351,-4.3509,-4.3474,-4.3566,-4.352,-4.3528,-4.3565,-4.3579,-4.359,-4.3589,-4.3418,0,0,0,0,0,-4.3455,-4.3483,-4.3475,-4.3528,-4.3533,-4.3517,-4.353,-4.3513,-4.3519,-4.3522,-4.3518,-4.3525,-4.3547,-4.3563,-4.3583,-4.3647,-4.3646,-4.3678,-4.3689,-4.3698,-4.3706,-4.3739,-4.3753,-4.3604,-4.3604,-4.3604,0,0,-4.35,-4.3499,-4.3518,-4.3541,-4.3545,-4.3574,-4.352,-4.3553,-4.3574,-4.3527,-4.3571,-4.3568,-4.3574,-4.3629,-4.3653,-4.363,-4.3747,-4.3706,-4.3714,-4.3716,-4.3747,-4.3761,-4.3773,-4.3608,-4.3607,-4.3607,0,0,-4.3595,-4.3598,-4.3642,-4.3646,-4.3653,-4.3641,-4.3652,-4.3651,-4.3647,-4.3691,-4.3656,-4.368,-4.372,-4.3725,-4.3733,-4.383,-4.3802,-4.3837,-4.3896,-4.3928,-4.394,-4.395,-4.3985,-4.3997,-4.3844,-4.3845,-4.3845,0,-4.3649,-4.3692,-4.3668,-4.3703,-4.3714,-4.3672,-4.3717,-4.3722,-4.3735,-4.3743,-4.3716,-4.3765,-4.3766,-4.3822,-4.3846,-4.3854,-4.3864,-4.3837,-4.394,-4.395,-4.396,-4.3992,-4.4005,-4.3849,-4.3848,-4.3848,-4.3848,0,-4.3758,-4.3788,-4.3823,-4.3837,-4.3851,-4.3891,-4.3872,-4.3889,-4.387,-4.3862,-4.3906,-4.3906,-4.3925,-4.3937,-4.3919,-4.399,-4.3975,-4.3945,-4.3898,-4.3978,-4.4008,-4.4021,-4.3855,-4.3853,-4.3852,-4.3851,0,0,-4.3896,-4.3895,-4.3908,-4.3913,-4.3916,-4.3939,-4.3976,-4.3995,-4.4011,-4.402,-4.4051,-4.4085,-4.4057,-4.4066,-4.4048,-4.4076,-4.4153,-4.4042,-4.4042,-4.4063,-4.4231,-4.4254,-4.4269,-4.4134,-4.4136,-4.4138,-4.423,0,-4.399,-4.4054,-4.4033,-4.4098,-4.4125,-4.4085,-4.4118,-4.4123,-4.4115,-4.4137,-4.4128,-4.4153,-4.4114,-4.4119,-4.4146,-4.4138,-4.4186,-4.4131,-4.4162,-4.4163,-4.4162,-4.4284,-4.4309,-4.4396,-4.4242,-4.4244,-4.4245,0,-4.4108,-4.4122,-4.419,-4.4188,-4.4199,-4.4228,-4.4243,-4.4265,-4.4269,-4.4262,-4.4272,-4.4247,-4.4283,-4.4236,-4.4285,-4.4248,-4.4259,-4.4257,-4.426,-4.4262,-4.421,-4.429,-4.4424,-4.4437,-4.4264,-4.4262,-4.4261,0,-4.4201,-4.4238,-4.4283,-4.4288,-4.4287,-4.4309,-4.4309,-4.4311,-4.4324,-4.4337,-4.4345,-4.4362,-4.4371,-4.4385,-4.4366,-4.4333,-4.4417,-4.4368,-4.4412,-4.4412,-4.4432,-4.4431,-4.4569,-4.4439,-4.4438,-4.4438,-4.4438,0,-4.4308,-4.4352,-4.4325,-4.4353,-4.44,-4.4374,-4.4421,-4.4417,-4.4419,-4.4445,-4.4411,-4.4436,-4.4409,-4.4431,-4.4416,-4.4459,-4.4463,-4.4458,-4.4453,-4.4461,-4.4462,-4.4468,-4.4462,-4.4442,-4.4441,-4.444,-4.444,0,-4.4422,-4.4405,-4.4452,-4.4447,-4.4446,-4.4481,-4.4476,-4.4501,-4.4491,-4.4524,-4.453,-4.4514,-4.4539,-4.4521,-4.4545,-4.4534,-4.4591,-4.4577,-4.4589,-4.4586,-4.463,-4.4627,-4.4778,-4.4797,-4.4654,-4.4656,-4.4657,0,-4.4491,-4.4523,-4.4521,-4.4536,-4.4539,-4.4564,-4.4576,-4.4552,-4.4566,-4.4573,-4.4598,-4.4619,-4.4635,-4.4676,-4.4666,-4.4684,-4.4671,-4.4723,-4.4674,-4.468,-4.4672,-4.467,-4.4673,-4.4733,-4.4735,-4.4736,-4.4737,0,-4.4616,-4.4606,-4.4626,-4.4643,-4.4659,-4.467,-4.468,-4.4694,-4.4669,-4.4686,-4.4711,-4.4723,-4.4748,-4.4769,-4.4784,-4.4783,-4.4757,-4.4753,-4.4764,-4.4772,-4.4778,-4.4775,-4.4617,-4.4749,-4.4748,-4.4747,-4.4747,-4.4746,-4.471,-4.4736,-4.4739,-4.4762,-4.4766,-4.4775,-4.4798,-4.4791,-4.4811,-4.4829,-4.4813,-4.4842,-4.4845,-4.4862,-4.4865,-4.4887,-4.4866,-4.4882,-4.4886,-4.489,-4.4897,-4.4774,-4.4889,-4.4889,-4.4889,-4.4888,-4.4888,0,-4.4833,-4.4833,-4.4854,-4.4868,-4.4885,-4.4858,-4.4866,-4.4883,-4.4909,-4.4914,-4.493,-4.4958,-4.4979,-4.497,-4.4988,-4.5008,-4.4996,-4.5013,-4.5012,-4.5012,-4.4915,-4.4903,-4.5023,-4.5023,-4.5023,-4.5023,-4.5023,-4.5023,-4.49,-4.4943,-4.4934,-4.4978,-4.4977,-4.5006,-4.5013,-4.5021,-4.5025,-4.5057,-4.5074,-4.5069,-4.5068,-4.5086,-4.5103,-4.51,-4.5108,-4.5131,-4.5123,-4.5032,-4.5019,-4.5007,-4.4996,-4.5133,-4.5133,-4.5219,-4.522,-4.522]}]]